SCP
0 0 0 0 0 0 0 0 0 0 0 0 0 0 0 0 0 0 0 0 0 0 0 0 0 0 0 0 0 0 0 0 0 0 0 0 0 0 0 0 0 0 0
0 0 0 0 0 0 0 0 0 0 0 0 0 0 0 0 0 0 0 0 0 0 0 0 0 0 0 0 0 0 0 0 0 0 0 0 0 0 0 0 0 0 0
0 0 0 0 0 0 0 0 0 0 0 0 0 0 0 0 0 0 0 0 0 0 0 0 0 0 0 0 0 0 0 0 0 0 0 0 0 0 0 0 0 -0 -0
0 0 0 0 0 0 0 0 0 0 0 0 0 0 0 0 0 0 0 0 0 0 0 0 0 0 0 0 0 0 0 0 0 0 0 0 0 0 0 0 -0 -0 -0
0 0 0 0 0 0 0 0 0 0 0 0 0 0 0 0 0 0 0 0 0 0 0 0 0 0 0 0 0 0 0 0 0 0 0 0 0 0 0 0 0 0 0
0 0 0 0 0 0 0 0 0 0 0 0 0 0 0 0 0 0 0 0 0 0 0 0 0 0 0 0 0 0 0 0 0 0 0 0 0 0 0 0 0 0 0
0 0 0 0 0 0 0 0 0 0 0 0 0 0 0 0 0 0 0 0 0 0 0 0 0 0 0 0 0 0 0 0 0 0 0 0 0 0 0 0 0 0 0
0 0 0 0 0 0 0 0 0 0 0 0 0 0 0 0 0 0 0 0 0 0 0 0 0 0 0 0 0 0 0 0 0 0 0 0 0 0 0 0 0 0 0
0 0 0 0 0 0 0 0 0 0 0 0 0 0 0 0 0 0 0 0 0 0 0 0 0 0 0 0 0 0 0 0 0 0 0 0 0 0 0 0 0 0 0
0 0 0 0 0 0 0 0 0 0 0 0 0 0 0 0 0 0 0 0 0 0 0 0 0 0 0 0 0 0 0 0 0 0 0 0 0 0 0 0 0 0 0
0 0 0 0 0 0 0 0 0 0 0 0 0 0 0 0 0 0 0 0 0 0 0 0 0 0 0 0 0 0 0 0 0 0 0 0 0 0 0 0 0 0 0
0 0 0 0 0 0 0 0 0 0 0 0 0 0 0 0 0 0 0 0 0 0 0 0 0 0 0 0 0 0 0 0 0 0 0 0 0 0 0 0 0 0 0
-0 -0 0 0 0 0 0 0 0 0 0 0 0 0 0 0 0 0 0 0 0 0 0 0 0 0 0 0 0 0 0 0 0 0 0 0 0 0 0 0 0 0 0
-0 -0 -0 0 0 0 0 0 0 0 0 0 0 0 0 0 0 0 0 0 0 0 0 0 0 0 0 0 0 0 0 0 0 0 0 0 0 0 0 0 0 0 0
-0 -0 0 0 0 0 0 0 0 0 0 0 0 0 0 0 0 0 0 0 0 0 0 0 0 0 0 0 0 0 0 0 0 0 0 0 0 0 0 0 0 0 0
-0 -0 0 0 0 0 0 0 0 0 0 0 0 0 0 0 0 0 0 0 0 0 0 0 0 0 0 0 0 0 0 0 0 0 0 0 0 0 0 0 0 0 0
-0 0 0 0 0 0 0 0 0 0 0 0 0 0 0 0 0 0 0 0 0 0 0 0 0 0 0 0 0 0 0 0 0 0 0 0 0 0 0 0 0 0 0
0 0 0 0 0 0 0 0 0 0 0 0 0 0 0 0 0 0 0 0 0 0 0 0 0 0 0 0 0 0 0 0 0 0 0 0 0 0 0 0 0 0 0
0 0 0 0 0 0 0 0 0 0 0 0 0 0 0 0 0 0 0 0 0 0 0 0 0 0 0 0 0 0 0 0 0 0 0 0 0 0 0 0 0 0 0
0 0 0 0 0 0 0 0 0 0 0 0 0 0 0 0 0 0 0 0 0 0 0 0 0 0 0 0 0 0 0 0 0 0 0 0 0 0 0 0 0 0 0
0 0 0 0 0 0 0 0 0 0 0 0 0 0 0 0 0 0 0 0 0 0 0 0 0 0 0 0 0 0 0 0 0 0 0 0 0 0 0 0 0 0 0
0 0 0 0 0 0 0 0 0 0 0 0 0 0 0 0 0 0 0 0 0 0 0 0 0 0 0 0 0 0 0 0 0 0 0 0 0 0 0 0 0 0 0
0 0 0 0 0 0 0 0 0 0 0 0 0 0 0 0 0 0 0 0 0 0 0 0 0 0 0 0 0 0 0 0 0 0 0 0 0 0 0 0 0 0 0
0 0 0 0 0 0 0 0 0 0 0 0 0 0 0 0 0 0 0 0 0 0 0 0 0 0 0 0 0 0 0 0 0 0 0 0 0 0 0 0 0 0 0
0 0 0 0 0 0 0 0 0 0 0 0 0 0 0 0 0 0 0 0 0 0 0 0 0 0 0 0 0 0 0 0 0 0 0 0 0 0 0 0 0 0 0
0 0 0 0 0 0 0 0 0 0 0 0 0 0 0 0 0 0 0 0 0 0 0 0 0 0 0 0 0 0 0 0 0 0 0 0 0 0 0 0 0 0 0
Wind_Speed
8 10 12 11 11 11 11 13 12 12 13 16 18 17 17 17 16 15 14 14 15 12 11 12 11 9 8 6 6 6 5 5 5 4 3 2 3 4 6 6 7 8 9
8 9 12 11 10 12 14 13 13 14 15 16 17 18 18 18 18 18 17 17 17 16 15 13 12 10 10 8 7 7 7 6 6 5 3 3 5 5 6 8 8 8 8
8 8 9 10 12 15 16 14 14 15 15 16 17 19 19 19 19 18 18 17 17 17 16 16 14 13 13 8 9 8 6 6 6 5 4 3 4 5 6 7 8 7 8
11 9 10 11 13 15 14 13 14 14 16 17 18 18 18 18 18 18 18 17 16 15 15 15 14 15 14 12 10 9 8 7 6 5 5 5 5 5 5 5 6 4 6
14 11 11 11 10 11 11 12 13 14 16 15 15 15 16 16 17 19 18 18 17 15 14 14 14 13 17 14 10 10 9 7 6 5 5 4 5 4 4 4 8 7 7
15 14 12 10 9 9 10 10 12 14 13 14 16 16 17 15 23 29 21 17 17 17 16 14 12 13 15 20 18 16 14 10 8 6 5 6 6 5 5 6 9 10 6
14 14 13 11 10 9 8 9 12 13 13 15 15 16 18 20 28 30 29 17 16 16 16 15 12 12 13 11 15 19 16 17 15 8 6 7 5 5 7 9 9 10 11
13 14 14 13 12 9 7 9 10 9 12 14 14 15 15 17 28 29 29 17 14 14 15 16 15 15 15 14 11 8 7 8 9 5 5 5 6 6 8 9 11 10 11
13 14 14 14 13 10 9 8 6 7 9 11 11 13 14 15 26 28 28 12 12 13 13 14 15 14 21 22 14 10 9 8 11 12 12 11 13 14 11 6 5 6 8
13 13 13 12 12 11 10 7 5 6 7 7 8 10 12 12 23 29 28 11 12 11 11 12 15 15 22 24 14 12 11 9 7 6 6 7 7 9 13 7 5 5 5
12 12 12 11 11 10 8 5 4 4 5 6 6 6 8 10 19 28 29 12 13 13 12 11 12 22 23 23 17 11 12 8 6 4 2 3 4 5 5 6 6 6 7
12 13 13 12 10 8 7 6 4 5 5 5 5 5 5 7 12 22 29 22 18 12 12 11 13 24 23 22 16 14 15 9 4 3 2 3 4 4 5 6 8 9 11
13 14 14 13 10 8 7 7 5 5 6 6 6 7 6 6 10 22 26 27 24 11 9 16 19 23 21 15 16 15 9 5 4 3 3 4 3 4 6 6 8 9 13
14 15 13 13 12 9 7 7 7 8 8 8 8 8 7 7 8 10 11 15 20 15 11 14 21 22 15 11 8 8 5 5 5 4 3 3 3 4 5 6 7 7 9
14 15 14 13 12 10 9 9 10 10 11 10 9 9 10 11 15 20 15 13 13 12 13 9 8 9 9 8 6 5 5 5 4 3 3 3 4 5 6 5 5 7 9
16 15 12 11 11 10 10 10 18 18 19 22 19 15 12 15 20 26 27 26 26 27 18 12 11 10 10 9 8 7 6 5 4 3 3 3 4 5 6 6 6 7 10
16 16 13 13 12 11 10 10 10 12 20 23 24 23 19 18 22 27 28 28 28 29 13 11 11 10 9 9 8 7 6 5 4 3 3 3 3 5 6 7 8 8 10
16 16 15 13 13 12 12 11 9 8 8 9 15 22 22 21 23 26 28 25 19 18 10 11 10 10 9 8 7 6 6 5 4 3 2 3 3 4 6 7 8 9 11
16 14 12 12 12 12 12 11 9 9 9 6 5 10 18 21 23 25 26 15 13 12 11 10 9 9 8 7 7 6 5 4 3 3 3 3 4 4 6 8 9 11 12
14 19 17 13 12 12 11 10 9 8 8 8 8 7 9 11 11 14 15 10 10 10 10 9 9 8 8 7 7 6 5 4 4 3 3 4 4 5 7 9 10 10 11
13 14 16 13 12 11 10 10 8 7 8 7 7 9 16 10 9 10 9 9 9 9 9 9 8 8 7 7 6 6 5 4 4 4 4 4 4 5 7 8 10 10 11
12 12 11 11 11 10 10 8 7 7 7 7 5 9 18 8 7 8 8 8 8 8 8 8 8 7 7 7 7 6 5 4 4 4 4 4 5 6 7 8 9 10 11
11 11 10 10 9 10 9 7 6 6 5 6 6 4 5 7 8 9 9 9 8 8 7 7 8 6 5 4 4 5 5 5 5 5 4 4 5 6 7 9 11 11 12
8 8 8 7 7 6 5 5 4 5 5 6 6 6 8 9 9 10 9 8 8 8 7 6 6 7 8 5 4 4 4 4 4 4 7 6 7 8 8 9 10 11 12
5 4 4 3 3 2 3 4 5 5 6 7 8 8 9 9 9 9 8 8 9 8 7 6 4 5 6 7 5 5 7 8 8 6 7 7 9 10 10 10 9 10 11
5 4 3 2 3 4 5 5 6 7 7 8 8 8 9 9 9 9 8 8 8 7 6 4 5 5 5 4 5 7 8 9 10 11 9 8 9 8 8 8 10 10 11
Wind_Direction
230 222 222 218 212 206 205 205 199 190 184 184 185 186 187 187 186 187 189 183 187 186 183 185 186 172 174 175 173 178 182 174 205 233 245 240 263 268 284 284 285 286 289
252 234 228 221 209 210 213 207 197 194 191 188 184 186 189 190 189 191 190 187 189 189 187 184 184 177 178 177 180 186 188 187 193 215 227 233 238 248 263 268 276 276 276
284 255 241 227 217 218 218 210 201 198 193 189 188 190 190 191 192 194 192 190 192 191 187 186 184 178 182 180 182 187 189 192 194 205 226 229 245 245 256 260 260 260 267
314 279 254 239 229 227 222 212 205 200 197 195 195 195 191 190 191 192 191 191 192 191 188 186 182 183 183 179 183 188 185 191 196 211 229 240 250 249 254 268 286 258 273
328 311 282 263 246 235 224 215 206 203 203 198 196 196 192 191 193 190 191 190 188 187 185 185 184 181 184 180 181 182 183 188 192 206 226 241 255 271 284 294 303 304 282
330 323 312 297 272 248 233 218 208 206 201 196 198 196 196 199 199 195 189 188 186 185 183 181 178 176 185 189 193 189 188 185 189 197 219 244 266 280 295 306 311 316 309
333 330 327 317 298 275 249 223 214 207 199 200 201 200 203 205 201 198 194 185 186 186 181 176 176 179 178 183 197 200 203 212 209 196 213 239 265 283 296 298 295 296 294
335 335 333 326 314 300 271 242 225 209 204 204 202 203 205 206 203 199 194 186 185 183 181 177 175 174 179 177 181 189 200 216 226 230 229 242 252 263 269 282 293 297 292
334 334 331 325 318 309 289 265 241 217 211 209 202 201 203 203 203 198 188 177 180 180 178 176 174 171 180 179 175 183 198 215 230 233 238 251 265 280 288 295 297 301 296
328 325 322 320 314 308 297 281 256 231 220 208 205 202 202 198 201 197 184 174 176 173 172 175 176 174 181 181 175 180 194 202 204 222 244 268 280 285 287 279 271 273 283
317 315 315 314 310 304 297 284 262 233 213 204 199 195 198 196 205 197 186 176 177 171 173 175 181 182 184 187 181 185 200 192 187 185 201 253 270 271 272 264 257 256 264
316 313 311 308 304 298 288 275 248 221 210 201 188 187 194 195 206 202 191 183 179 174 175 174 180 183 184 188 187 190 200 184 141 149 196 246 258 264 269 272 272 270 268
314 310 307 302 295 285 271 259 241 217 211 204 196 197 196 197 209 206 195 186 182 172 171 173 175 181 181 186 189 186 171 151 151 171 206 232 245 269 283 286 283 277 273
307 304 302 298 291 277 259 242 231 221 215 208 204 201 194 193 199 200 191 183 180 172 167 171 173 176 168 155 166 170 154 160 170 185 205 237 267 276 276 279 284 292 288
301 297 295 289 283 275 258 243 234 228 220 213 209 199 193 197 200 195 185 180 171 165 156 154 159 163 161 158 155 153 154 160 174 185 205 239 265 274 277 282 278 286 283
294 292 290 287 282 273 266 261 248 239 235 230 222 210 209 205 198 198 196 187 175 167 160 166 169 171 170 168 165 162 166 170 173 178 199 231 257 273 282 285 283 280 283
278 281 281 279 275 270 261 254 256 248 238 235 229 221 211 204 200 200 198 191 181 169 166 171 173 173 170 165 162 160 160 159 158 175 202 229 255 272 282 286 287 285 286
272 273 271 271 269 265 259 252 245 237 232 231 228 223 214 206 202 200 196 187 183 174 171 170 169 167 164 159 155 152 149 148 156 176 205 232 247 262 274 278 281 283 291
269 268 265 265 265 263 260 250 240 231 228 220 205 216 210 203 200 200 194 189 179 169 166 164 160 158 156 150 145 143 145 152 162 178 214 234 240 248 263 271 280 285 290
264 262 261 260 260 258 254 246 235 225 219 214 207 200 188 185 191 192 190 178 169 161 158 154 150 148 146 144 143 144 148 161 176 197 220 235 242 249 264 272 279 288 292
262 259 255 254 254 252 248 241 228 217 212 211 203 197 191 187 184 179 172 160 153 151 149 145 143 142 140 140 143 151 161 175 185 202 224 238 244 254 263 271 278 284 291
256 251 245 245 248 245 240 230 217 211 207 199 182 201 200 177 158 148 137 129 125 128 135 136 136 140 149 153 156 160 171 186 198 205 223 240 249 259 265 271 277 288 297
258 249 243 241 240 239 232 218 205 199 187 175 169 161 149 127 123 119 114 111 113 114 116 121 127 131 133 144 157 167 179 195 197 195 215 242 254 260 264 272 281 291 300
262 248 240 236 233 228 212 192 178 164 152 145 126 111 109 110 110 109 109 111 111 109 109 115 126 143 153 161 174 191 208 216 208 210 217 234 252 262 268 274 282 291 298
293 266 243 230 212 186 153 132 124 122 118 110 104 104 104 104 105 107 110 111 113 114 120 123 130 149 170 184 196 209 228 238 234 221 221 233 247 257 267 277 286 293 297
354 9 26 48 71 85 95 99 100 100 98 96 99 103 105 106 108 111 114 115 117 121 128 137 158 172 186 204 223 236 243 247 243 236 230 238 250 261 272 281 286 292 296